Wind_Speed
1 3 1 3 5 5 1 3 2 6 7 3 2 1 5 11 7 2 10 10 8 7 7 6 4 5 4 4 4 5 5 6 7 7 7 7 7 7 7 8 9 10 11 12 13 12 13 12 10
3 2 1 5 6 4 4 5 8 9 6 9 8 3 2 5 6 13 12 10 9 8 7 6 4 4 5 5 6 7 7 8 8 8 8 9 9 10 10 10 10 11 11 12 13 14 14 14 15
4 3 3 3 2 9 3 12 9 10 12 8 5 2 3 6 10 12 11 12 10 9 8 4 4 4 6 7 7 7 7 7 8 8 9 9 10 10 11 12 12 12 13 13 14 14 15 15 15
4 3 4 6 11 3 3 9 9 14 7 6 3 5 5 8 11 9 13 12 11 10 7 4 4 5 6 7 7 8 8 9 9 10 10 11 11 12 13 14 15 15 16 17 18 18 18 18 18
4 5 6 8 12 1 4 9 13 14 10 9 10 8 6 9 11 14 13 12 11 11 7 5 4 4 5 5 6 7 8 9 10 11 12 13 14 15 16 16 17 18 19 19 20 20 21 22 22
5 5 8 10 13 4 5 10 14 14 9 9 8 8 6 12 15 14 13 12 11 10 8 5 4 2 2 3 5 5 6 7 9 11 12 13 14 15 16 17 18 19 20 21 22 23 24 24 25
6 8 13 13 10 7 10 12 14 12 11 11 3 8 7 15 16 17 15 13 12 10 8 6 4 3 1 1 2 4 6 8 10 12 14 16 16 18 18 19 20 21 22 23 24 25 26 27 27
6 6 14 11 11 12 9 14 7 13 10 5 11 8 8 21 20 18 16 15 13 11 10 8 6 4 3 2 2 4 6 9 11 14 17 19 22 22 24 24 24 24 25 26 27 27 28 28 29
4 6 11 14 11 11 8 13 8 7 9 14 12 3 5 26 22 20 18 16 14 13 11 9 7 6 4 1 2 4 6 9 14 17 20 22 23 24 24 25 26 26 27 27 28 29 29 30 29
6 8 13 13 7 8 11 18 13 8 17 16 13 7 14 22 24 22 20 18 15 14 13 11 10 8 5 2 1 2 7 11 14 17 19 21 22 24 25 25 27 27 28 28 30 30 32 30 31
6 13 13 7 7 6 11 16 16 15 15 20 21 17 22 22 24 22 20 18 18 16 14 13 12 10 6 4 1 3 7 11 14 16 19 22 24 26 27 28 29 30 31 32 33 34 33 34 34
10 14 10 3 6 5 12 9 15 22 16 11 18 20 24 25 26 25 22 20 19 18 17 15 13 11 8 5 1 3 6 10 13 16 19 23 25 26 28 28 29 29 31 31 32 32 32 32 33
12 14 8 9 7 11 10 15 19 19 22 8 12 22 26 26 26 24 22 21 20 19 18 17 15 12 9 6 2 2 6 9 13 16 20 24 27 28 29 29 30 30 30 30 32 32 32 32 32
2 10 11 9 11 9 10 15 8 15 19 16 17 23 25 27 28 26 25 24 22 20 19 18 16 14 11 6 3 3 6 9 12 16 21 25 28 29 30 31 31 29 29 30 31 30 31 31 32
6 7 10 14 14 7 11 15 19 21 17 21 22 22 25 27 28 30 28 26 24 21 20 19 18 16 11 8 5 5 7 9 12 16 21 26 29 30 31 31 30 29 30 31 30 29 29 30 31
7 6 9 7 14 6 11 15 10 27 21 23 23 24 26 28 31 28 27 25 24 22 22 20 19 17 13 10 7 7 7 10 13 16 20 25 29 30 31 31 29 29 30 30 28 28 28 30 30
10 13 15 8 15 7 15 13 5 9 23 24 25 26 27 27 30 29 28 27 25 24 24 22 20 18 15 12 9 9 8 10 13 16 20 26 29 31 31 30 29 28 29 27 26 25 25 29 31
12 17 13 12 11 16 14 22 12 10 17 23 25 27 29 30 33 31 29 27 26 25 24 22 20 19 17 14 12 10 10 10 14 17 21 26 30 31 32 30 28 28 28 27 24 25 25 26 29
10 14 16 8 7 10 19 21 20 22 21 22 25 29 31 33 30 31 31 29 27 26 26 24 23 22 19 16 12 8 7 11 14 18 22 26 31 33 33 30 28 28 25 25 25 25 26 27 26
20 17 19 14 7 7 14 21 21 20 25 31 32 33 33 31 32 34 34 33 30 28 27 25 23 22 20 17 15 13 13 14 17 19 22 27 31 33 31 28 28 27 26 26 23 22 26 26 23
19 20 16 16 1 13 12 18 21 18 31 34 34 34 33 34 34 35 36 35 32 29 28 26 24 23 21 20 18 15 15 14 15 18 25 28 32 33 31 30 29 28 27 27 23 22 22 28 26
19 16 16 12 5 8 4 9 14 13 14 16 28 32 34 34 34 35 36 36 33 31 28 25 23 22 22 20 17 15 14 15 17 22 26 30 33 32 31 30 28 28 27 26 25 22 24 24 29
9 3 9 10 11 13 14 7 7 14 15 16 17 25 28 32 34 36 36 35 32 30 30 27 24 23 23 21 19 17 15 16 20 23 27 30 31 30 28 27 28 28 27 26 25 25 24 25 27
13 8 6 4 5 8 17 15 8 14 17 14 4 18 22 27 31 32 32 32 32 30 29 28 25 24 23 21 19 17 16 18 20 24 27 29 29 28 26 26 27 28 26 24 26 28 27 27 27
12 9 4 5 5 9 1 12 14 10 3 3 5 9 17 22 27 31 33 33 31 31 28 27 26 24 22 19 18 17 17 18 21 24 26 28 28 26 26 26 27 27 26 28 28 27 28 27 28
22 16 5 8 7 9 3 8 7 8 5 14 8 5 15 21 25 29 31 31 30 31 28 26 25 23 21 19 18 16 17 19 22 24 25 27 25 25 26 27 28 27 27 27 27 27 28 27 28
8 14 13 16 6 5 7 11 13 8 7 6 11 10 15 20 23 26 28 29 28 28 26 25 23 22 19 18 16 15 17 19 22 24 25 24 24 24 26 28 28 27 26 25 25 28 27 27 28
8 12 7 6 6 14 9 15 8 6 13 13 12 14 15 19 22 24 26 27 26 24 23 22 22 21 19 17 15 15 17 19 22 23 23 23 24 25 28 28 27 26 25 24 24 26 27 27 29
7 8 8 5 9 8 11 9 9 3 8 11 12 15 17 21 23 24 25 25 25 24 24 24 22 21 18 16 14 14 16 19 21 21 21 23 25 26 27 27 26 25 25 24 24 24 26 27 28
19 17 20 8 11 6 3 7 4 6 5 4 11 14 15 19 22 24 25 26 26 25 24 22 20 18 16 13 13 14 17 18 19 20 22 24 26 26 25 25 24 24 24 23 23 24 25 26 26
Wind_Direction
332 313 260 206 241 242 133 175 24 155 174 139 74 360 55 40 10 55 148 126 117 99 88 55 35 20 19 25 28 23 22 21 17 11 5 357 354 351 344 337 331 322 311 307 304 305 295 292 298
311 287 216 251 256 252 156 146 189 180 99 140 136 147 116 86 77 128 134 137 122 109 102 87 69 60 68 66 58 51 46 43 39 30 24 16 10 5 359 353 347 337 334 331 323 319 313 306 301
322 281 248 255 232 243 224 185 174 135 145 156 137 29 104 101 120 139 150 141 129 113 100 104 89 79 74 67 62 54 47 40 33 26 18 11 4 359 353 350 343 339 335 331 327 322 318 314 309
252 285 248 240 235 186 319 185 152 155 159 187 139 142 107 119 148 156 145 138 132 117 109 122 88 84 71 58 48 39 35 28 21 13 6 2 356 351 346 342 338 336 332 331 328 324 322 319 316
302 261 253 240 255 161 210 166 175 173 168 182 193 150 136 158 146 144 145 145 141 130 119 133 115 80 58 46 34 24 16 8 2 357 355 352 349 345 342 338 334 332 329 326 323 320 318 317 316
246 260 250 245 243 176 209 178 186 186 177 172 192 153 142 172 157 159 152 151 154 166 170 150 128 106 72 39 19 7 0 358 359 359 360 357 353 348 343 339 334 331 327 326 324 322 320 317 314
246 244 256 273 280 195 217 191 198 194 188 188 229 199 145 172 172 169 164 164 167 170 169 167 170 158 142 324 329 349 1 10 15 9 3 357 353 348 344 340 337 333 331 329 326 323 320 318 315
254 264 264 254 262 251 181 190 211 208 215 156 186 207 192 184 174 169 173 175 176 178 180 182 179 187 227 242 333 359 21 19 11 8 3 358 355 352 347 343 339 335 332 330 326 323 320 316 314
235 253 255 261 264 266 172 199 204 210 190 194 201 239 137 170 169 171 175 177 179 182 187 188 194 205 216 248 334 24 19 10 9 6 3 1 355 349 345 338 337 334 331 328 323 321 319 316 314
223 246 257 283 274 260 209 213 180 193 206 204 197 187 155 169 174 176 178 180 180 187 192 197 204 207 206 224 1 13 11 9 6 4 0 355 349 345 343 341 337 335 332 333 331 329 328 325 322
211 243 266 249 246 236 222 216 199 215 213 218 210 194 174 176 181 184 185 186 184 190 197 204 207 204 200 205 209 10 9 4 360 355 354 350 348 348 345 341 339 337 336 333 330 327 325 321 318
248 245 257 267 218 225 224 227 221 217 220 218 218 199 185 185 188 189 189 189 184 191 203 206 206 201 203 199 175 10 0 353 348 348 347 349 349 347 344 340 337 333 329 326 324 322 319 316 313
241 256 248 245 233 229 234 233 223 227 233 208 202 186 190 192 192 193 191 190 188 191 203 206 205 203 203 199 170 349 336 338 342 343 345 348 349 347 343 339 336 333 330 327 324 322 318 315 314
287 246 240 231 222 219 222 233 220 236 223 209 197 192 194 195 194 192 192 191 190 192 202 208 205 206 207 194 208 283 311 326 333 337 341 347 349 346 341 338 336 332 328 326 324 321 318 316 314
218 234 219 227 218 227 213 245 229 231 207 205 203 202 200 201 197 197 194 193 191 195 201 206 206 209 207 206 220 268 300 317 326 335 342 346 346 343 340 337 334 330 326 325 323 320 317 315 313
223 232 240 191 191 200 191 257 231 220 204 209 208 207 204 203 201 199 198 194 192 195 201 204 207 208 210 216 227 258 290 310 323 332 339 342 343 341 338 335 331 327 325 323 320 317 314 309 307
212 252 225 218 195 176 202 263 273 191 198 219 214 212 208 206 205 202 200 195 192 196 200 205 208 209 212 219 232 254 280 304 318 328 334 338 340 338 336 332 328 325 322 319 316 309 307 305 304
235 226 252 237 192 214 216 246 244 202 219 226 223 217 214 211 209 203 200 196 194 195 201 205 208 210 215 223 234 252 280 298 316 323 329 332 336 336 333 330 327 323 319 315 310 306 305 303 306
285 279 249 252 114 213 237 251 250 241 218 230 228 221 218 215 210 204 200 197 194 195 198 205 207 213 217 224 230 241 249 288 306 317 323 329 334 333 330 327 324 320 313 309 309 306 307 307 308
239 255 256 263 148 217 265 262 260 247 243 229 227 226 219 215 208 203 200 198 197 195 199 202 209 213 217 222 226 235 260 285 302 313 323 327 330 329 326 323 321 318 312 312 308 307 306 303 308
232 237 250 257 133 235 282 274 254 244 234 237 230 226 226 215 209 203 201 199 197 196 199 202 207 212 218 225 238 250 271 292 308 310 317 323 327 326 324 323 321 318 315 312 307 307 304 303 301
240 231 245 263 234 263 189 286 284 280 235 223 230 221 223 217 211 205 201 200 198 196 198 200 203 210 218 228 237 251 267 286 298 311 318 323 325 324 322 320 319 316 313 309 306 303 298 300 299
247 160 202 226 244 271 244 264 267 251 250 237 213 223 220 217 208 203 198 200 198 195 197 200 201 209 220 229 237 251 267 286 301 312 316 320 322 319 320 319 318 315 312 308 305 302 297 294 293
134 121 126 193 249 249 237 227 238 245 250 249 91 203 213 210 204 200 197 196 195 193 193 197 200 211 222 231 239 252 270 288 303 312 315 319 317 318 318 315 313 313 310 305 301 300 297 295 292
184 175 208 224 209 252 220 228 244 286 238 228 183 206 199 198 196 192 191 191 190 189 191 196 201 210 220 228 241 255 272 291 305 312 315 316 316 316 315 314 313 311 305 303 303 299 296 295 293
197 197 190 227 217 238 129 229 246 249 293 197 176 186 181 187 190 190 190 189 189 189 191 192 198 209 219 229 241 258 279 296 305 312 314 314 312 312 312 312 312 309 309 306 301 298 296 296 293
179 220 243 267 282 271 218 243 261 193 189 187 194 183 179 182 185 186 186 187 187 188 188 193 196 208 217 227 242 263 284 298 307 311 313 314 313 311 311 312 312 310 308 303 301 297 298 296 294
220 158 187 219 231 249 241 247 246 206 227 208 196 190 180 178 179 181 183 183 184 183 182 187 195 208 217 228 244 267 288 302 308 313 315 313 312 311 313 314 311 310 308 304 302 300 299 297 295
183 198 217 258 218 246 259 241 214 275 173 192 198 194 180 175 175 175 175 176 175 174 179 189 194 206 216 228 251 275 295 303 309 313 315 312 312 314 314 314 311 310 309 308 304 302 301 298 295
221 216 209 228 206 229 281 255 121 118 110 168 169 175 173 175 171 169 167 167 170 176 182 189 196 204 217 236 261 285 296 306 312 314 313 312 313 316 317 315 312 311 310 308 306 304 302 300 298
Height
1505 1505 1505 1508 1509 1495 1501 1506 1501 1504 1507 1508 1507 1507 1507 1515 1513 1523 1529 1531 1533 1536 1537 1533 1533 1532 1532 1532 1531 1531 1530 1529 1529 1529 1528 1527 1526 1525 1524 1523 1523 1522 1522 1521 1520 1519 1519 1518 1517
1505 1505 1505 1504 1501 1503 1501 1500 1504 1502 1505 1508 1512 1513 1512 1518 1523 1525 1528 1530 1533 1535 1535 1532 1532 1532 1533 1532 1532 1532 1531 1530 1529 1529 1528 1527 1525 1525 1523 1522 1521 1521 1520 1519 1518 1517 1516 1516 1515
1504 1505 1506 1499 1497 1503 1493 1497 1495 1504 1508 1509 1512 1514 1515 1520 1523 1526 1527 1528 1532 1534 1533 1530 1532 1533 1533 1533 1532 1532 1531 1531 1530 1529 1528 1527 1526 1525 1524 1522 1521 1520 1519 1518 1517 1515 1514 1513 1512
1506 1506 1506 1501 1494 1488 1489 1491 1496 1504 1508 1509 1508 1512 1519 1520 1524 1525 1525 1529 1531 1532 1530 1531 1532 1533 1532 1532 1532 1531 1531 1530 1530 1529 1528 1527 1526 1524 1523 1522 1521 1519 1518 1517 1515 1514 1513 1512 1510
1504 1503 1498 1494 1489 1489 1492 1491 1498 1501 1503 1507 1510 1510 1518 1520 1521 1523 1526 1529 1530 1531 1530 1530 1532 1532 1532 1532 1531 1531 1530 1529 1529 1528 1527 1526 1525 1524 1522 1521 1520 1517 1517 1515 1514 1512 1510 1509 1508
1505 1500 1494 1491 1482 1486 1492 1494 1497 1498 1503 1507 1510 1510 1517 1518 1519 1522 1524 1527 1528 1527 1529 1530 1531 1532 1531 1531 1531 1531 1530 1530 1529 1528 1527 1526 1524 1523 1521 1519 1518 1516 1515 1513 1512 1510 1508 1507 1505
1502 1494 1490 1483 1482 1487 1491 1495 1495 1495 1500 1505 1506 1508 1515 1517 1519 1520 1522 1524 1525 1526 1528 1529 1530 1531 1531 1531 1532 1531 1530 1529 1528 1527 1526 1524 1523 1521 1519 1518 1516 1514 1512 1510 1508 1506 1505 1503 1501
1500 1494 1488 1484 1485 1486 1486 1493 1494 1495 1497 1503 1508 1504 1510 1514 1516 1518 1520 1522 1524 1525 1527 1528 1529 1530 1531 1531 1531 1530 1529 1528 1527 1526 1524 1522 1520 1519 1516 1514 1513 1510 1508 1507 1504 1502 1500 1498 1496
1498 1493 1488 1483 1482 1481 1485 1492 1496 1496 1499 1503 1506 1506 1506 1510 1513 1516 1518 1520 1522 1523 1525 1527 1528 1529 1530 1530 1530 1529 1528 1528 1526 1524 1523 1521 1520 1518 1516 1513 1511 1509 1506 1504 1501 1499 1497 1494 1492
1494 1490 1482 1478 1478 1483 1485 1490 1493 1498 1499 1501 1502 1504 1507 1506 1509 1512 1515 1517 1520 1521 1523 1524 1526 1528 1529 1529 1528 1528 1528 1527 1525 1524 1523 1522 1520 1518 1515 1512 1509 1506 1503 1501 1498 1494 1492 1490 1487
1488 1486 1479 1480 1484 1486 1485 1488 1490 1492 1490 1491 1495 1501 1503 1504 1507 1511 1513 1516 1518 1519 1521 1523 1524 1526 1527 1527 1527 1527 1526 1526 1525 1524 1523 1521 1519 1516 1512 1509 1506 1503 1500 1497 1494 1492 1489 1487 1484
1490 1483 1484 1484 1486 1487 1484 1486 1485 1487 1484 1486 1490 1493 1498 1500 1503 1507 1510 1514 1515 1516 1518 1520 1522 1523 1525 1525 1525 1525 1525 1525 1525 1523 1522 1520 1517 1514 1511 1508 1505 1502 1499 1496 1493 1490 1487 1484 1481
1487 1481 1484 1484 1486 1486 1486 1484 1483 1481 1483 1484 1487 1489 1492 1496 1499 1503 1508 1511 1512 1513 1515 1517 1519 1521 1522 1523 1523 1524 1524 1524 1523 1521 1520 1518 1515 1512 1509 1507 1504 1500 1496 1493 1490 1486 1483 1480 1476
1479 1481 1483 1484 1484 1484 1484 1482 1484 1476 1479 1482 1485 1486 1488 1491 1494 1499 1503 1506 1508 1510 1511 1514 1516 1518 1520 1521 1522 1522 1523 1522 1521 1520 1518 1516 1513 1510 1507 1504 1501 1497 1494 1490 1487 1483 1479 1476 1473
1483 1483 1481 1479 1480 1480 1483 1479 1469 1472 1473 1477 1479 1482 1485 1487 1491 1493 1496 1500 1503 1505 1507 1510 1513 1516 1517 1519 1520 1520 1521 1520 1519 1518 1516 1514 1512 1508 1505 1501 1498 1495 1491 1488 1484 1480 1476 1472 1469
1479 1478 1472 1457 1473 1477 1479 1460 1453 1463 1469 1471 1474 1477 1479 1482 1484 1489 1492 1496 1499 1501 1503 1506 1509 1512 1514 1516 1517 1518 1518 1518 1517 1516 1514 1512 1509 1506 1503 1499 1496 1492 1489 1485 1481 1478 1473 1470 1465
1470 1463 1459 1461 1466 1469 1473 1456 1451 1458 1463 1466 1467 1471 1474 1478 1481 1484 1487 1490 1494 1496 1499 1502 1506 1509 1511 1513 1515 1515 1515 1515 1514 1513 1512 1510 1507 1504 1500 1497 1493 1490 1486 1483 1479 1476 1472 1466 1461
1458 1460 1454 1453 1460 1464 1465 1457 1453 1458 1460 1459 1460 1463 1467 1470 1473 1479 1483 1486 1489 1492 1495 1498 1502 1505 1508 1510 1511 1512 1512 1512 1511 1510 1509 1507 1504 1501 1497 1494 1490 1486 1483 1480 1477 1473 1468 1463 1457
1450 1448 1447 1442 1456 1463 1458 1452 1447 1449 1453 1453 1453 1454 1457 1461 1468 1473 1477 1480 1484 1487 1489 1493 1497 1500 1504 1506 1508 1509 1510 1509 1509 1508 1507 1504 1501 1497 1494 1490 1486 1483 1480 1477 1473 1468 1464 1459 1455
1449 1454 1448 1443 1456 1463 1452 1443 1437 1439 1436 1437 1442 1443 1447 1455 1460 1464 1469 1473 1477 1480 1484 1488 1492 1496 1500 1503 1504 1506 1506 1507 1506 1505 1503 1500 1498 1494 1490 1486 1482 1479 1475 1472 1468 1465 1460 1456 1453
1447 1448 1447 1448 1456 1457 1455 1433 1424 1417 1421 1424 1427 1433 1439 1443 1450 1457 1463 1467 1471 1476 1479 1484 1488 1492 1496 1499 1500 1502 1503 1503 1502 1501 1499 1497 1494 1490 1486 1482 1477 1474 1471 1467 1464 1460 1457 1451 1448
1446 1439 1445 1450 1460 1454 1450 1437 1412 1404 1404 1412 1415 1422 1428 1434 1441 1448 1454 1461 1465 1470 1475 1480 1484 1488 1491 1494 1496 1498 1498 1498 1497 1496 1494 1492 1489 1485 1481 1477 1473 1470 1466 1462 1459 1457 1453 1449 1443
1443 1444 1446 1450 1453 1450 1445 1454 1410 1400 1400 1398 1406 1413 1420 1426 1432 1439 1446 1455 1461 1466 1469 1474 1479 1482 1484 1487 1490 1491 1493 1493 1492 1491 1489 1487 1484 1480 1476 1472 1469 1465 1461 1458 1455 1451 1448 1445 1440
1447 1449 1452 1453 1450 1456 1442 1437 1410 1400 1393 1391 1401 1407 1413 1419 1426 1435 1443 1451 1456 1461 1464 1469 1473 1477 1480 1482 1485 1487 1488 1488 1488 1487 1484 1482 1479 1475 1472 1468 1464 1460 1457 1453 1449 1445 1442 1438 1435
1442 1445 1450 1456 1460 1436 1425 1423 1403 1390 1394 1396 1401 1405 1409 1416 1422 1430 1437 1445 1452 1457 1461 1465 1469 1471 1475 1478 1480 1482 1483 1483 1483 1481 1479 1477 1474 1470 1467 1463 1459 1455 1452 1447 1444 1440 1436 1433 1429
1435 1428 1434 1437 1431 1412 1437 1427 1397 1389 1394 1393 1401 1405 1408 1414 1420 1427 1435 1443 1448 1452 1456 1460 1464 1466 1471 1474 1475 1477 1479 1479 1478 1476 1474 1472 1468 1465 1461 1457 1453 1449 1446 1442 1438 1435 1430 1427 1423
1428 1428 1418 1420 1421 1430 1404 1400 1390 1391 1393 1395 1399 1404 1407 1412 1418 1425 1433 1439 1444 1448 1453 1457 1461 1464 1467 1470 1472 1473 1474 1475 1474 1472 1469 1467 1464 1460 1456 1452 1447 1443 1440 1436 1433 1428 1424 1421 1417
1416 1411 1426 1426 1429 1416 1390 1384 1381 1391 1387 1390 1396 1400 1405 1411 1417 1423 1429 1435 1442 1446 1450 1454 1457 1459 1462 1465 1468 1470 1470 1470 1468 1467 1465 1462 1459 1455 1451 1446 1442 1438 1434 1430 1427 1423 1419 1415 1411
1418 1411 1412 1404 1400 1400 1395 1375 1365 1373 1379 1383 1390 1398 1402 1408 1414 1420 1426 1433 1438 1442 1445 1448 1452 1455 1459 1462 1464 1466 1465 1465 1463 1461 1459 1456 1453 1449 1445 1440 1436 1432 1428 1425 1421 1417 1413 1409 1405
1394 1395 1397 1398 1398 1399 1399 1388 1375 1380 1382 1384 1388 1395 1401 1407 1412 1418 1423 1428 1432 1436 1440 1444 1449 1453 1456 1460 1461 1461 1460 1459 1458 1456 1454 1451 1448 1444 1439 1435 1431 1427 1423 1419 1415 1411 1408 1403 1399